Regional Weather Roundup
Issued by NWS

Home | Current Version | Previous Version | Graphics & Text | Print | Product List | Glossary On
Versions: 1 2 3 4 5 6 7 8 9 10 11 12 13 14 15 16 17 18 19 20 21 22 23 24 25 26 27 28 29 30 31 32 33 34 35 36 37 38 39 40 41 42 43 44 45 46 47 48 49 50
000
ASUS45 KABQ 211501
RWRNM
NEW MEXICO REGIONAL WEATHER ROUNDUP
NATIONAL WEATHER SERVICE ALBUQUERQUE NM
900 AM MDT SAT APR 21 2018

NOTE: "FAIR" MEANS FEW OR NO CLOUDS BELOW 12,000 FEET AGL WITH NO
       SIGNIFICANT WEATHER OR OBSTRUCTIONS TO VISION.

      THIS PRODUCT IS RELEASED AS TWO VERSIONS.  ONE VERSION NEAR
      THE TOP OF THE HOUR CONTAINING PRELIMINARY DATA FROM ALBUQUERQUE
      AND OTHER STATIONS.  A FINAL VERSION WITH ADDITIONAL DATA IS
      ISSUED ABOUT 10 MINUTES AFTER THE HOUR.

NMZ501-503-504-510>518-211600-
NORTHWEST PLATEAU/NORTHCENTRAL MOUNTAINS

CITY           SKY/WX    TMP DP  RH WIND       PRES   REMARKS
FARMINGTON     FAIR      48  32  53 W22G30    30.09S
LOS ALAMOS     PTSUNNY   40  25  54 E3        30.12R
SANTA FE       FAIR      44  30  57 N13       30.10R
TAOS           CLOUDY    37  22  54 CALM      30.14R
ANGEL FIRE     FAIR      34  22  63 SW7       30.11R WCI  28

$$
NMZ402-403-502-505>509-211600-
WESTCENTRAL MOUNTAINS/SOUTHWEST MOUNTAINS

CITY           SKY/WX    TMP DP  RH WIND       PRES   REMARKS
GALLUP         FAIR      41  33  73 W5        30.18R
GRANTS         CLOUDY    45  29  54 NW13G22   30.16R
SILVER CITY    FAIR      49  20  31 NW3       30.17R

$$
NMZ407-409-411-412-211600-
SOUTHERN DESERTS

CITY           SKY/WX    TMP DP  RH WIND       PRES   REMARKS
DEMING         FAIR      53  25  33 W7        30.16R
LAS CRUCES     FAIR      55  24  29 NW7       30.15R
HOLLOMAN AFB   FAIR      56  28  34 N14       30.13S
ALAMOGORDO     FAIR      55  27  33 N15G23    30.10F
T OR C         FAIR      53  27  36 NW16G24   30.13R

$$
NMZ519>523-211600-
CENTRAL VALLEYS/CENTRAL HIGHLANDS

CITY           SKY/WX    TMP DP  RH WIND       PRES   REMARKS
ALBUQUERQUE    PTSUNNY   43  29  57 VRB3      30.15R
DOUBLE EAGLE   PTSUNNY   39  28  65 CALM      30.14R
MORIARTY ARPT  CLOUDY    45  28  50 NW14      30.13R
CLINES CORNERS CLOUDY    39  25  57 NW17      30.12R WCI  30
BELEN          CLOUDY    45  29  53 E7        30.14S
SOCORRO        FAIR      50  26  38 NW15G22   30.11F

$$
NMZ524>526-539-540-211600-
SOUTHCENTRAL MOUNTAINS

CITY           SKY/WX    TMP DP  RH WIND       PRES   REMARKS
RUIDOSO        FAIR      41  25  52 NW15G25   30.12R

$$
NMZ527>531-211600-
NORTHEAST HIGHLANDS/NORTHEAST PLAINS

CITY           SKY/WX    TMP DP  RH WIND       PRES   REMARKS
LAS VEGAS      FOG       31  31 100 NE7       30.08R VSB 1/4 WCI  24
RATON          CLOUDY    41  31  67 N8        30.09R
CLAYTON        LGT RAIN  40  40 100 N10       30.08R WCI  33

$$
NMZ532>537-211600-
EASTCENTRAL PLAINS

CITY           SKY/WX    TMP DP  RH WIND       PRES   REMARKS
SANTA ROSA     FAIR      47  35  63 NW8       30.06S
TUCUMCARI      CLOUDY    47  41  80 N14       30.05R
CANNON AFB     CLOUDY    46  46 100 N13       30.05R
CLOVIS AIRPORT CLOUDY    46  43  89 N18       30.05R

$$
NMZ028-029-538-211600-
SOUTHEAST PLAINS

CITY           SKY/WX    TMP DP  RH WIND       PRES   REMARKS
ROSWELL        FAIR      60  29  30 N20G26    30.03R
ARTESIA        FAIR      59  30  33 NW16G23   30.05S
CARLSBAD       FAIR      60  28  29 NW14      30.03R
HOBBS          SUNNY     57  36  44 NW29G40   30.00F


$$



USA.gov is the U.S. government's official web portal to all federal, state and local government web resources and services.